STARLINK-6075, 56102

Orbit data source: Space-Track

STARLINK-6075, 56102 is a payload satellite owned by SpaceX/Seattle (US) in LEO that was launched on Wed, 29 Mar 2023 UTC via an FALCON 9 launch vehicle from the Air Force Eastern Test Range (AFETR). Payload-class satellites include a variety of spacecraft equipped with specific instruments for various scientific and technological missions. These include communications satellites like Starlink; space stations such as the ISS; scientific satellites like the Hubble; Earth observation satellites from companies like Planet Labs, Umbra, and HawkEye 360; GPS; miniature CubeSats for education and research; and military/defense satellites.

Loading next visibility...
Identifier
56102, 2023-046K
Orbit
LEO
Country
Flag of USUS
Related business
Manufacturer
SpaceX/Seattle
Mission
Operational Commercial Communications
Bus & Motor
STARLINK, Unknown motor
Mass
305 kg wet, ~290 kg dry
Launch date (UTC)
2023-03-29 (3 years ago)
Launch vehicle
FALCON 9
Launch site
Air Force Eastern Test Range (AFETR)
Object type
Payload
Rocket body
Debris
Shape & HBR
Box + 1 Pan, 10.1 m
Radar Cross Section
11.087 m², Large (>1 m²)

Expand to show TLE details & history
Last TLE update: 3 days ago

TLE from 3 days ago
0 STARLINK-6075
1 56102U 23046K   26170.82944368  .00001165  00000-0  51882-4 0  9990
2 56102  43.0042 304.6226 0002214 284.1875  75.8731 15.27580227177652
Epoch: 2026-06-19T19:54Z
TLE epoch observation values (Epoch: 2026-06-19T19:54:23.933Z)
Latitude
-0.00002°
Longitude
97.97006°
Altitude
482.454 km
Speed
7.626 km/s
True Right ascension
20h 18m 29s
True Declination
0° 00' 00"
Sunlit
Object was in full shadow at epoch
Visualization orbit readout
Latitude
Unknown
Longitude
Unknown
Altitude
Unknown
Speed
Unknown
Apparent Right ascension
Unknown
Apparent Declination
Unknown
Sunlit
N/A
Visualization observer readout
Local Sidereal Time
21:29:38
Azimuth
Unknown
Elevation
Unknown
Doppler factor
Unknown
Orbital elements
Apogee altitude
486.512 km
Perigee altitude
483.473 km
Semi-major axis
6,863.13 km
Eccentricity
0.00022
Inclination
43.0042°
RAAN
304.6226°
Arg. of periapsis
284.1875°
True anomaly
75.8977°
Mean anomaly
75.8731°
Eccentric anomaly
75.8854°
Mean motion
3.81733 °/min
Orbital period
94.31 mins
BSTAR
0.000051882
Loading maneuver chart data...
Computing Atmospheric mass density...
Loading historical data...
Loading historical data...
Loading historical data...
Loading historical data...
Loading historical data...
Loading historical data...
Loading historical data...

Documentation

Showing up to 5 results
|